Flag for U.S.A. Weather past 2 weeks in Portland, Maine, U.S.A.

Now
30 °F

Passing clouds.


Feels Like: 20 °F
Forecast: 25 / 38 °F
Wind: 13 mph from North

Location: Portland - Portland International Jetport

Current Time: Mar 29, 2015 at 12:44:46 AM

Latest Report: Mar 28, 2015 at 11:51 PM


Visibility: 10 mi

Pressure: 30.01 "Hg

Humidity: 49%

Dew point: 13 °F

Location of PortlandLocation

Historic Weather in Portland — Graph

°F

Portland temperature yesterday

Maximum temperature yesterday: 40 °F (at 5:51 PM)
Minimum temperature yesterday: 32 °F (at 10:51 PM)
Average temperature yesterday: 36 °F

Past Weeks' High & Low Weather Summary

 TemperatureHumidityPressure
High48 °F (Mar 26, 11:51 AM)97% (Mar 14, 6:51 PM)30.40 "Hg (Mar 14, 6:51 PM)
Low13 °F (Mar 20, 5:51 AM)21% (Mar 19, 5:51 PM)29.34 "Hg (Mar 17, 3:51 PM)
Average31 °F59%29.95 "Hg
* Reported Mar 13 10:51 PM — Mar 28 10:51 PM, Portland, Weather by CustomWeather, © 2015

Note: Actual official high and low records may vary slightly from our data, if they occured in-between our weather recording intervals... More about our weather records

Advertising

Portland weather history for previous 24 hours

 ConditionsComfort  
Time TempWeatherWind HumidityBarometerVisibility
10:51 PM
Sat, Mar 28
32 °FPassing clouds.14 mph52%29.98 "Hg10 mi
9:51 PM34 °FPassing clouds.12 mph50%29.95 "Hg10 mi
8:51 PM36 °FPassing clouds.13 mph50%29.91 "Hg10 mi
7:51 PM38 °FOvercast.3 mph48%29.87 "Hg10 mi
6:51 PM39 °FOvercast.5 mph48%29.83 "Hg10 mi
5:51 PM40 °FPartly sunny.6 mph47%29.80 "Hg10 mi
4:51 PM39 °FOvercast.8 mph55%29.78 "Hg10 mi
3:51 PM37 °FOvercast.10 mph60%29.79 "Hg10 mi
2:51 PM36 °FMostly cloudy.14 mph64%29.79 "Hg9 mi
2:03 PM34 °FLight snow. Mostly cloudy.18 mph76%29.79 "Hg3 mi
1:51 PM34 °FLight snow. Mostly cloudy.20 mph76%29.79 "Hg1 mi
12:51 PM33 °FLight snow. Fog.18 mph85%29.81 "Hg1 mi
11:51 AM34 °FLight snow. Mostly cloudy.20 mph76%29.81 "Hg2 mi
10:51 AM36 °FLight snow. More clouds than sun.15 mph62%29.82 "Hg9 mi
9:51 AM36 °FOvercast.17 mph52%29.82 "Hg10 mi
8:51 AM36 °FMostly cloudy.13 mph50%29.80 "Hg10 mi
7:51 AM36 °FOvercast.14 mph52%29.79 "Hg10 mi
6:51 AM36 °FOvercast.14 mph54%29.78 "Hg10 mi
5:51 AM37 °FOvercast.13 mph57%29.77 "Hg10 mi
4:51 AM38 °FOvercast.9 mph63%29.76 "Hg10 mi
3:51 AM38 °FOvercast.6 mph68%29.77 "Hg10 mi
2:51 AM39 °FOvercast.9 mph65%29.76 "Hg10 mi
1:51 AM39 °FOvercast.6 mph67%29.78 "Hg10 mi
12:51 AM39 °FMostly cloudy.6 mph70%29.77 "Hg10 mi
Weather by CustomWeather, © 2015

See weather overviewHow to use our weather pages